Location: Muenchen
(48.1800°N, 11.5800°E)
Time: 00:32:10
(UTC+01:00)

Tiros 1 - Pass Details

Date: 25 June 2018
Orbit: 630 x 664 km, 48.4° (Epoch: 13 November)

Event Time Altitude Azimuth Distance (km) Brightness Sun altitude
Rises 00:19:34 0° 284° (WNW) 2,952 10.9 -17.3°
Reaches altitude 10° 00:22:10 10° 273° (W) 2,046 9.9 -17.4°
Maximum altitude 00:26:07 27° 216° (SW) 1,253 8.2 -17.5°
Enters shadow 00:26:29 26° 207° (SSW) 1,263 8.2 -17.6°
